Volver al catálogo

COSMOS 1375 DEB

ActivoLEO
NORAD 18413·DEBRIS·🇷🇺 Russia

Lanzado Jun 6, 1982 desde Plesetsk Cosmodrome

Loading…

Próximos Pases (próximas 24 horas)

TLE

ActualizadoSource: Space-Track

Época: Sep 13, 2026, 17:14 UTC

1 18413U 82055BC  26256.71838373  .00000542  00000-0  67684-3 0  9993
2 18413  65.8219 119.5044 0068371 106.1281 319.6858 13.71676103 36686

Sigue COSMOS 1375 DEB en tiempo real con AllMySat

Download on the App Store